[[{"header":{"parameterUnit":"m.s-1","parameterCategory":1,"la1":30.2991,"la2":30.254,"lo1":-89.0895,"lo2":-89.0444,"dy":0.0017,"dx":0.0017,"nx":28,"ny":28,"refTime":"2023-04-16T21:00:00:Z","depth":0,"parameterNumber":2,"parameterNumberName":"U-component_of_WINDS"},"data":[0,0,0,0,0,0,0,0,0,0,0,0,0,0,0,0,0,0,0,0,0,0,0,0,0,0,0,0,0,0,0,0,0,0,0,0,0,0,0,0,0,0,0,0,0,0,0,0,0,0,0,0,0,0,0,0,0,0,-1.1463,-1.1463,0,-1.1501,-1.1502,-1.1502,-1.1509,-1.1509,-1.1508,-1.1508,-1.1549,-1.1551,-1.1552,0,0,0,0,0,0,0,0,0,0,0,0,0,-1.1399,-1.14,-1.1463,-1.1463,-1.1464,-1.1501,-1.1502,-1.1502,-1.1509,-1.1509,-1.1508,-1.1508,-1.1549,-1.155,-1.1552,0,0,0,0,0,0,0,0,0,0,0,0,0,-1.1431,-1.14,-1.1463,-1.1472,-1.1473,-1.1501,-1.1502,-1.1502,-1.1509,-1.1509,-1.1508,-1.1508,-1.1548,-1.155,-1.1552,-1.1575,0,0,-1.1559,-1.156,0,0,0,0,0,0,0,0,-1.1429,-1.1433,-1.147,-1.1471,-1.1472,-1.15,-1.1494,-1.1527,-1.1509,-1.1495,-1.1508,-1.1507,-1.1533,-1.1537,-1.1545,-1.1577,-1.1579,-1.1559,-1.156,-1.1561,-1.1562,0,0,0,0,0,0,0,-1.1427,-1.1432,-1.1478,-1.147,-1.1472,-1.1475,-1.1479,-1.15,-1.1517,-1.1497,-1.1497,-1.1502,-1.1534,-1.1543,-1.1546,-1.1579,-1.1559,-1.1561,-1.1562,-1.1563,-1.1633,-1.1634,0,0,0,0,0,0,-1.1423,-1.143,-1.1477,-1.1479,-1.1449,-1.1476,-1.1481,-1.1492,-1.1516,-1.152,-1.1502,-1.1502,-1.1539,-1.1543,-1.1547,-1.1576,-1.1561,-1.1563,-1.1564,-1.1633,-1.1633,-1.1634,0,0,0,0,0,0,-1.1421,-1.1427,-1.1475,-1.1455,-1.1461,-1.1478,-1.149,-1.1493,-1.1501,-1.152,-1.1524,-1.1508,-1.1539,-1.1544,-1.1568,-1.1578,-1.1564,-1.1566,-1.1632,-1.1633,-1.1634,-1.1633,0,0,0,0,0,0,-1.1419,-1.1426,-1.1434,-1.1455,-1.1462,-1.1494,-1.149,-1.1494,-1.1505,-1.1505,-1.1527,-1.153,-1.1539,-1.1565,-1.157,-1.158,-1.1567,-1.1631,-1.1632,-1.1633,-1.1632,-1.1634,-1.1635,0,0,0,0,0,-1.1417,-1.1432,-1.1434,-1.144,-1.1472,-1.1495,-1.1499,-1.1509,-1.1505,-1.1514,-1.1527,-1.1529,-1.1576,-1.1567,-1.1573,-1.1584,-1.1631,-1.1632,-1.1633,-1.1632,-1.1634,-1.1635,0,0,0,0,0,0,-1.1413,-1.1435,-1.1437,-1.146,-1.1475,-1.1496,-1.1507,-1.1511,-1.1528,-1.1527,-1.154,-1.1545,-1.1568,-1.1579,-1.1569,-1.1608,-1.1603,-1.1606,-1.16,-1.1602,-1.1603,-1.16,-1.1569,0,0,0,0,0,-1.1414,-1.143,-1.1449,-1.1467,-1.1475,-1.149,-1.15,-1.1506,-1.1523,-1.153,-1.1544,-1.1561,-1.158,-1.1591,-1.161,-1.1635,-1.164,-1.1645,-1.1646,-1.1648,-1.1649,-1.1665,-1.1667,-1.1639,-1.1639,-1.1639,0,0,-1.1418,-1.1432,-1.1441,-1.1467,-1.148,-1.1497,-1.1495,-1.1513,-1.1526,-1.1533,-1.1556,-1.1567,-1.1587,-1.1612,-1.1623,-1.1621,-1.1659,-1.1649,-1.165,-1.1651,-1.1666,-1.1669,-1.1671,-1.164,-1.1639,-1.1639,0,0,-1.1433,-1.1445,-1.1462,-1.1475,-1.1494,-1.1504,-1.1508,-1.1528,-1.1536,-1.156,-1.1565,-1.1582,-1.1613,-1.1627,-1.1639,-1.1661,-1.1665,-1.1667,-1.1674,-1.1689,-1.1691,-1.1693,-1.1702,-1.1704,-1.1669,-1.1669,-1.1669,0,-1.1435,-1.146,-1.147,-1.1488,-1.1499,-1.1506,-1.1524,-1.1537,-1.1561,-1.1569,-1.1567,-1.1607,-1.1621,-1.165,-1.1655,-1.1664,-1.167,-1.1664,-1.169,-1.1692,-1.1694,-1.1702,-1.1705,-1.1669,-1.1669,-1.1669,-1.1669,0,-1.1462,-1.1479,-1.1491,-1.1514,-1.1527,-1.1544,-1.1558,-1.1571,-1.1577,-1.1587,-1.1612,-1.1629,-1.1651,-1.1659,-1.1665,-1.1689,-1.1687,-1.1687,-1.1682,-1.1697,-1.1705,-1.1708,-1.1669,-1.1669,-1.1669,-1.1669,0,0,-1.1474,-1.1503,-1.1507,-1.1518,-1.1541,-1.1555,-1.1574,-1.1595,-1.1606,-1.1623,-1.164,-1.1667,-1.1668,-1.1681,-1.1689,-1.1701,-1.1719,-1.17,-1.1701,-1.1703,-1.1748,-1.1747,-1.175,-1.1722,-1.1723,-1.1723,-1.1746,0,-1.1491,-1.1524,-1.1534,-1.1562,-1.1579,-1.1587,-1.1604,-1.162,-1.1631,-1.1648,-1.1661,-1.168,-1.1679,-1.1687,-1.17,-1.1714,-1.1728,-1.1713,-1.1738,-1.1739,-1.1732,-1.1755,-1.1754,-1.1774,-1.1749,-1.175,-1.175,0,-1.1516,-1.1533,-1.1562,-1.1584,-1.1591,-1.1606,-1.1627,-1.1643,-1.1662,-1.167,-1.1685,-1.1692,-1.1714,-1.1708,-1.1739,-1.1728,-1.1739,-1.1748,-1.1749,-1.1752,-1.1745,-1.1757,-1.1781,-1.1784,-1.1755,-1.1755,-1.1754,0,-1.1522,-1.1553,-1.1574,-1.1584,-1.1609,-1.162,-1.1631,-1.165,-1.1662,-1.1681,-1.169,-1.1711,-1.1723,-1.174,-1.1754,-1.1749,-1.1783,-1.1779,-1.1791,-1.179,-1.1797,-1.1796,-1.1823,-1.1805,-1.1805,-1.1805,-1.1805,0,-1.1541,-1.1558,-1.1578,-1.1591,-1.1611,-1.1624,-1.1645,-1.1657,-1.1674,-1.169,-1.1699,-1.1715,-1.1732,-1.175,-1.1761,-1.1785,-1.179,-1.1798,-1.18,-1.1797,-1.1796,-1.1804,-1.1803,-1.1805,-1.1805,-1.1805,-1.1805,0,-1.155,-1.1564,-1.1588,-1.1611,-1.1617,-1.1631,-1.1651,-1.1665,-1.1677,-1.1698,-1.1704,-1.1723,-1.1745,-1.176,-1.1789,-1.1797,-1.1823,-1.1825,-1.1816,-1.1817,-1.1828,-1.1827,-1.186,-1.1866,-1.1844,-1.1844,-1.1844,0,-1.1561,-1.1575,-1.1599,-1.161,-1.1621,-1.164,-1.1653,-1.1667,-1.168,-1.1704,-1.1716,-1.1738,-1.1757,-1.1793,-1.181,-1.1832,-1.1835,-1.1846,-1.1839,-1.1835,-1.1836,-1.1835,-1.1837,-1.1846,-1.1847,-1.1847,-1.1847,0,-1.1579,-1.1585,-1.1603,-1.1623,-1.1638,-1.1655,-1.1673,-1.1682,-1.1699,-1.1714,-1.1737,-1.1751,-1.1781,-1.1804,-1.1828,-1.1841,-1.1847,-1.1849,-1.1853,-1.1849,-1.1843,-1.1847,-1.1818,-1.1848,-1.1848,-1.1848,-1.1848,-1.1848,-1.159,-1.1602,-1.1621,-1.1641,-1.1656,-1.1672,-1.1686,-1.17,-1.1719,-1.1744,-1.1751,-1.1775,-1.1796,-1.1829,-1.1843,-1.1862,-1.1862,-1.1867,-1.1869,-1.187,-1.187,-1.184,-1.1867,-1.1867,-1.1867,-1.1867,-1.1867,0,-1.1608,-1.1621,-1.1639,-1.1663,-1.1679,-1.1683,-1.1703,-1.1716,-1.1736,-1.1755,-1.1774,-1.18,-1.1823,-1.1842,-1.1866,-1.1878,-1.1882,-1.1884,-1.1883,-1.1886,-1.1869,-1.1863,-1.1881,-1.1881,-1.1881,-1.1881,-1.1881,-1.1881,-1.1619,-1.1641,-1.165,-1.168,-1.1694,-1.1716,-1.1727,-1.1743,-1.1758,-1.1787,-1.1806,-1.1818,-1.1837,-1.1863,-1.1884,-1.189,-1.1898,-1.19,-1.1906,-1.1889,-1.1887,-1.1886,-1.188,-1.1901,-1.1901,-1.1921,-1.1922,-1.1922]},{"header":{"parameterUnit":"m.s-1","parameterCategory":1,"la1":30.2991,"la2":30.254,"lo1":-89.0895,"lo2":-89.0444,"dy":0.0017,"dx":0.0017,"nx":28,"ny":28,"refTime":"2023-04-16T21:00:00:Z","depth":0,"parameterNumber":3,"parameterNumberName":"V-component_of_WINDS"},"data":[0,0,0,0,0,0,0,0,0,0,0,0,0,0,0,0,0,0,0,0,0,0,0,0,0,0,0,0,0,0,0,0,0,0,0,0,0,0,0,0,0,0,0,0,0,0,0,0,0,0,0,0,0,0,0,0,0,0,4.5398,4.5398,0,4.536,4.5359,4.5359,4.5342,4.5342,4.5343,4.5343,4.5299,4.5297,4.5296,0,0,0,0,0,0,0,0,0,0,0,0,0,4.5453,4.5452,4.5398,4.5398,4.5397,4.536,4.5359,4.5359,4.5342,4.5342,4.5343,4.5343,4.5299,4.5298,4.5296,0,0,0,0,0,0,0,0,0,0,0,0,0,4.5423,4.5452,4.5398,4.5385,4.5383,4.536,4.5359,4.5359,4.5342,4.5342,4.5343,4.5343,4.5299,4.5298,4.5296,4.5282,0,0,4.529,4.5289,0,0,0,0,0,0,0,0,4.5425,4.5421,4.5387,4.5385,4.5384,4.5356,4.5363,4.5333,4.5342,4.5358,4.5343,4.5343,4.5317,4.5314,4.5306,4.528,4.5278,4.529,4.5289,4.5288,4.5287,0,0,0,0,0,0,0,4.5427,4.5423,4.5383,4.5387,4.5384,4.5379,4.5375,4.5357,4.5337,4.5356,4.5355,4.5351,4.5316,4.5308,4.5305,4.5277,4.529,4.5288,4.5287,4.5286,4.5238,4.5238,0,0,0,0,0,0,4.5432,4.5425,4.5384,4.5382,4.5405,4.5378,4.5373,4.5365,4.5337,4.5333,4.5351,4.535,4.5311,4.5307,4.5304,4.5286,4.5288,4.5286,4.5285,4.5238,4.5238,4.5238,0,0,0,0,0,0,4.5433,4.5429,4.5385,4.5403,4.5397,4.5377,4.5367,4.5364,4.5356,4.5333,4.5329,4.5347,4.5311,4.5306,4.5288,4.5284,4.5285,4.5284,4.5238,4.5238,4.5238,4.525,0,0,0,0,0,0,4.5435,4.5429,4.5425,4.5403,4.5396,4.5372,4.5367,4.5363,4.5353,4.5352,4.5328,4.5324,4.5311,4.5291,4.5286,4.5282,4.5282,4.5238,4.5238,4.5238,4.525,4.525,4.5251,0,0,0,0,0,4.5437,4.5428,4.5424,4.542,4.539,4.5372,4.5367,4.5354,4.5353,4.5348,4.5333,4.5325,4.5285,4.5289,4.5284,4.5278,4.5239,4.5238,4.5238,4.525,4.525,4.5251,0,0,0,0,0,0,4.5448,4.5425,4.5421,4.5405,4.5391,4.5369,4.5362,4.5355,4.5339,4.5338,4.5321,4.5315,4.5299,4.5286,4.5291,4.5264,4.5261,4.526,4.5272,4.5273,4.5273,4.5276,4.5281,0,0,0,0,0,4.5449,4.5437,4.5417,4.5405,4.5399,4.5382,4.5373,4.5364,4.5347,4.5341,4.5325,4.5308,4.5292,4.5282,4.5265,4.5248,4.5243,4.5242,4.5242,4.5243,4.5242,4.5232,4.5231,4.5236,4.5236,4.5236,0,0,4.545,4.5436,4.543,4.5407,4.5395,4.5382,4.5376,4.5363,4.5352,4.5338,4.532,4.5308,4.5288,4.5271,4.5262,4.526,4.5239,4.5242,4.5243,4.5241,4.5232,4.5231,4.5231,4.5236,4.5236,4.5236,0,0,4.5446,4.5435,4.5424,4.5412,4.5394,4.5383,4.5381,4.536,4.5352,4.5335,4.5324,4.5311,4.5283,4.527,4.5259,4.5251,4.5243,4.5246,4.5248,4.5239,4.5238,4.5238,4.5235,4.5234,4.5245,4.5245,4.5245,0,4.5449,4.5431,4.5419,4.5406,4.5396,4.5385,4.5373,4.5362,4.5339,4.5332,4.5331,4.5297,4.5282,4.5262,4.526,4.5252,4.5248,4.5249,4.524,4.5239,4.5238,4.5235,4.5234,4.5246,4.5246,4.5246,4.5245,0,4.5436,4.5423,4.5416,4.5397,4.5386,4.5374,4.5359,4.535,4.5342,4.5331,4.5313,4.5295,4.5276,4.527,4.5261,4.5248,4.5248,4.5243,4.524,4.5239,4.5236,4.5234,4.5246,4.5246,4.5246,4.5246,0,0,4.5437,4.5412,4.541,4.5401,4.5381,4.537,4.5357,4.534,4.5332,4.5317,4.5305,4.5283,4.5279,4.5267,4.5257,4.5249,4.5244,4.5245,4.5244,4.5245,4.5228,4.5232,4.5231,4.5238,4.5238,4.5238,4.523,0,4.543,4.5408,4.5397,4.538,4.5368,4.5357,4.5346,4.5332,4.5321,4.5308,4.5295,4.528,4.5276,4.5269,4.5261,4.5246,4.524,4.5247,4.5226,4.5226,4.5232,4.5229,4.5233,4.5226,4.5229,4.5228,4.5228,0,4.5419,4.5406,4.5388,4.537,4.5365,4.5355,4.5339,4.5327,4.531,4.5303,4.5291,4.5281,4.5266,4.5265,4.5244,4.5248,4.5239,4.5231,4.5231,4.5228,4.5227,4.5226,4.5223,4.5222,4.5226,4.5226,4.5226,0,4.5421,4.5399,4.5386,4.5379,4.5358,4.5351,4.5342,4.5326,4.5316,4.5301,4.5295,4.5278,4.5268,4.5255,4.524,4.5241,4.5221,4.5218,4.5213,4.5214,4.5209,4.521,4.5205,4.5204,4.5204,4.5204,4.5204,0,4.5415,4.5404,4.5387,4.5379,4.5366,4.5353,4.5341,4.533,4.5317,4.5305,4.5294,4.5283,4.5265,4.5252,4.524,4.5225,4.522,4.5213,4.521,4.5214,4.5215,4.5208,4.5208,4.5203,4.5204,4.5204,4.5204,0,4.5415,4.5404,4.5388,4.537,4.5366,4.5357,4.5341,4.5332,4.5321,4.5307,4.5303,4.5285,4.5269,4.5254,4.5232,4.5224,4.5208,4.5204,4.5214,4.5213,4.5209,4.521,4.5199,4.5197,4.5198,4.5198,4.5198,0,4.5412,4.5404,4.5386,4.5378,4.537,4.5357,4.5348,4.5335,4.5326,4.5307,4.53,4.5284,4.527,4.5245,4.5229,4.5212,4.5207,4.5205,4.5205,4.5209,4.5207,4.5208,4.5207,4.5205,4.5205,4.5205,4.5205,0,4.5407,4.5402,4.539,4.5376,4.5366,4.5354,4.5342,4.5336,4.532,4.531,4.5295,4.5284,4.5263,4.5246,4.5228,4.5216,4.5208,4.5206,4.5204,4.5208,4.5214,4.521,4.5215,4.5206,4.5206,4.5206,4.5206,4.5206,4.5405,4.5398,4.5385,4.5372,4.5361,4.535,4.5341,4.533,4.5318,4.53,4.5293,4.5277,4.5261,4.5236,4.5225,4.5211,4.5209,4.5206,4.5206,4.5205,4.5206,4.5217,4.5208,4.5208,4.5208,4.5208,4.5208,0,4.54,4.5391,4.538,4.5364,4.5354,4.5349,4.5335,4.5326,4.5313,4.53,4.5287,4.5269,4.5253,4.5237,4.522,4.5212,4.5208,4.5208,4.5209,4.5206,4.5209,4.5212,4.5212,4.5212,4.5212,4.5212,4.5212,4.5212,4.5396,4.5383,4.5377,4.5359,4.5349,4.5336,4.5328,4.5317,4.5307,4.5288,4.5276,4.5266,4.5251,4.5233,4.5218,4.5214,4.5208,4.5209,4.5204,4.5206,4.5206,4.5206,4.5209,4.5208,4.5208,4.5202,4.5202,4.5202]}]]